CCA869K ZGGG-ZBAA

Flight info

Callsign CCA869K
Flight time 2h 45m
Altitude 35100
Route MIKIP A461 BUBDA W56 DUGEB
Aircraft A339/H-SADE1E2E3GHIJ1J3J5M1P2RWXYZ/LB1D1

Departure

Time 2026-05-04 13:34
Airport Guangzhou Baiyun International Airport (ZGGG)

Arrival

Time 2026-05-04 16:20
Airport Beijing Capital International Airport (ZBAA)
Time Latitude Longitude Altitude Speed Heading
2026-05-04 13:04 23.39085 113.30407 62 ft 0 kts 330°
2026-05-04 13:20 23.39075 113.30413 62 ft 2 kts 330°
2026-05-04 13:20 23.39062 113.30421 62 ft 2 kts 330°
2026-05-04 13:20 23.39054 113.30426 62 ft 1 kts 330°
2026-05-04 13:21 23.39042 113.30435 62 ft 2 kts 314°
2026-05-04 13:21 23.39032 113.30448 62 ft 2 kts 297°
2026-05-04 13:21 23.39027 113.30463 62 ft 2 kts 282°
2026-05-04 13:21 23.39025 113.30479 62 ft 2 kts 266°
2026-05-04 13:22 23.39027 113.30496 62 ft 2 kts 251°
2026-05-04 13:22 23.39034 113.30510 62 ft 2 kts 235°
2026-05-04 13:22 23.39043 113.30522 62 ft 2 kts 220°
2026-05-04 13:22 23.39055 113.30531 62 ft 2 kts 204°
2026-05-04 13:23 23.39063 113.30534 62 ft 1 kts 195°
2026-05-04 13:23 23.39066 113.30535 62 ft 0 kts 196°
2026-05-04 13:26 23.39063 113.30534 62 ft 1 kts 194°
2026-05-04 13:26 23.39048 113.30531 62 ft 3 kts 192°
2026-05-04 13:26 23.39019 113.30524 62 ft 5 kts 194°
2026-05-04 13:27 23.38969 113.30510 62 ft 8 kts 193°
2026-05-04 13:27 23.38905 113.30493 62 ft 10 kts 194°
2026-05-04 13:27 23.38833 113.30473 62 ft 11 kts 194°
2026-05-04 13:27 23.38752 113.30451 62 ft 12 kts 194°
2026-05-04 13:28 23.38664 113.30428 62 ft 13 kts 193°
2026-05-04 13:28 23.38572 113.30404 62 ft 14 kts 193°
2026-05-04 13:28 23.38476 113.30377 62 ft 13 kts 198°
2026-05-04 13:28 23.38381 113.30350 62 ft 14 kts 194°
2026-05-04 13:29 23.38285 113.30322 62 ft 14 kts 194°
2026-05-04 13:29 23.38184 113.30295 62 ft 15 kts 193°
2026-05-04 13:29 23.38080 113.30267 62 ft 15 kts 193°
2026-05-04 13:29 23.37972 113.30238 62 ft 16 kts 194°
2026-05-04 13:30 23.37867 113.30211 62 ft 15 kts 193°
2026-05-04 13:30 23.37765 113.30193 62 ft 14 kts 174°
2026-05-04 13:30 23.37678 113.30229 62 ft 9 kts 152°
2026-05-04 13:30 23.37637 113.30284 62 ft 10 kts 113°
2026-05-04 13:31 23.37616 113.30357 62 ft 9 kts 104°
2026-05-04 13:31 23.37609 113.30386 62 ft 0 kts 103°
2026-05-04 13:32 23.37609 113.30388 62 ft 0 kts 103°
2026-05-04 13:32 23.37605 113.30409 62 ft 4 kts 103°
2026-05-04 13:32 23.37594 113.30460 62 ft 8 kts 103°
2026-05-04 13:33 23.37603 113.30527 62 ft 9 kts 47°
2026-05-04 13:33 23.37672 113.30559 62 ft 12 kts 14°
2026-05-04 13:33 23.37898 113.30618 62 ft 65 kts 14°
2026-05-04 13:33 23.38543 113.30795 63 ft 124 kts 14°
2026-05-04 13:34 23.39559 113.31072 74 ft 172 kts 14°
2026-05-04 13:34 23.40741 113.31374 608 ft 173 kts 13°
2026-05-04 13:34 23.41859 113.31675 1316 ft 166 kts 17°
2026-05-04 13:34 23.42966 113.32013 1903 ft 166 kts 18°
2026-05-04 13:35 23.44127 113.32373 2216 ft 180 kts 18°
2026-05-04 13:35 23.46768 113.33182 2839 ft 213 kts 17°
2026-05-04 13:35 23.48247 113.33627 3214 ft 228 kts 17°
2026-05-04 13:36 23.49816 113.34099 3615 ft 243 kts 17°
2026-05-04 13:36 23.51471 113.34594 4252 ft 249 kts 16°
2026-05-04 13:36 23.53150 113.35098 4945 ft 252 kts 15°
2026-05-04 13:36 23.54849 113.35606 5614 ft 255 kts 14°
2026-05-04 13:37 23.56585 113.36031 6277 ft 258 kts
2026-05-04 13:37 23.58361 113.36372 6932 ft 262 kts
2026-05-04 13:37 23.60167 113.36708 7590 ft 265 kts
2026-05-04 13:37 23.61997 113.37050 8281 ft 268 kts
2026-05-04 13:38 23.63838 113.37397 8950 ft 272 kts
2026-05-04 13:38 23.65714 113.37755 9613 ft 275 kts
2026-05-04 13:38 23.67593 113.38112 10247 ft 279 kts
2026-05-04 13:38 23.69521 113.38478 10881 ft 282 kts
2026-05-04 13:39 23.71452 113.38844 11494 ft 286 kts
2026-05-04 13:39 23.73421 113.39220 12125 ft 288 kts
2026-05-04 13:39 23.75422 113.39603 12723 ft 292 kts
2026-05-04 13:39 23.77419 113.39984 13325 ft 295 kts
2026-05-04 13:40 23.79456 113.40374 13935 ft 298 kts
2026-05-04 13:40 23.81504 113.40766 14543 ft 300 kts
2026-05-04 13:40 23.83578 113.41164 15151 ft 302 kts
2026-05-04 13:40 23.85634 113.41559 15736 ft 304 kts
2026-05-04 13:41 23.87731 113.41960 16302 ft 306 kts
2026-05-04 13:41 23.89813 113.42358 16887 ft 307 kts
2026-05-04 13:41 23.91930 113.42765 17449 ft 309 kts
2026-05-04 13:42 23.96234 113.43584 18270 ft 325 kts
2026-05-04 13:42 23.98527 113.44015 18517 ft 339 kts
2026-05-04 13:42 24.00894 113.44463 18756 ft 353 kts
2026-05-04 13:42 24.03376 113.44940 18994 ft 367 kts
2026-05-04 13:43 24.05943 113.45352 19220 ft 377 kts 358°
2026-05-04 13:43 24.08592 113.45454 19600 ft 380 kts 352°
2026-05-04 13:43 24.11192 113.45240 20112 ft 379 kts 347°
2026-05-04 13:43 24.13818 113.44899 20629 ft 382 kts 346°
2026-05-04 13:44 24.16498 113.44527 21127 ft 385 kts 346°
2026-05-04 13:44 24.19163 113.44157 21587 ft 389 kts 346°
2026-05-04 13:44 24.21866 113.43787 22045 ft 393 kts 346°
2026-05-04 13:44 24.24601 113.43415 22516 ft 397 kts 346°
2026-05-04 13:45 24.27349 113.43044 22975 ft 400 kts 346°
2026-05-04 13:45 24.30108 113.42672 23419 ft 404 kts 346°
2026-05-04 13:45 24.32945 113.42314 23875 ft 408 kts 347°
2026-05-04 13:45 24.35782 113.42121 24355 ft 414 kts 351°
2026-05-04 13:46 24.38712 113.42107 24700 ft 423 kts 353°
2026-05-04 13:46 24.41657 113.42178 25011 ft 430 kts 354°
2026-05-04 13:46 24.44654 113.42268 25422 ft 434 kts 354°
2026-05-04 13:46 24.47713 113.42361 25857 ft 437 kts 354°
2026-05-04 13:47 24.50768 113.42453 26281 ft 440 kts 354°
2026-05-04 13:47 24.53841 113.42544 26703 ft 443 kts 353°
2026-05-04 13:47 24.56892 113.42633 27078 ft 446 kts 353°
2026-05-04 13:47 24.60022 113.42722 27464 ft 449 kts 353°
2026-05-04 13:48 24.63171 113.42812 27893 ft 451 kts 353°
2026-05-04 13:48 24.66306 113.42901 28275 ft 454 kts 353°
2026-05-04 13:48 24.69495 113.42992 28672 ft 457 kts 353°
2026-05-04 13:48 24.72659 113.43081 29042 ft 460 kts 353°
2026-05-04 13:49 24.75866 113.43171 29384 ft 463 kts 353°
2026-05-04 13:49 24.79100 113.43260 29738 ft 465 kts 353°
2026-05-04 13:49 24.82381 113.43355 30098 ft 467 kts 353°
2026-05-04 13:49 24.85600 113.43446 30456 ft 469 kts 353°
2026-05-04 13:50 24.88909 113.43541 30813 ft 471 kts 353°
2026-05-04 13:50 24.92175 113.43636 31135 ft 473 kts 352°
2026-05-04 13:50 24.95510 113.43729 31459 ft 475 kts 353°
2026-05-04 13:50 24.98828 113.43825 31771 ft 477 kts 352°
2026-05-04 13:51 25.02142 113.43920 32067 ft 479 kts 352°
2026-05-04 13:51 25.05498 113.44017 32426 ft 480 kts 352°
2026-05-04 13:51 25.08802 113.44113 32845 ft 479 kts 352°
2026-05-04 13:51 25.12140 113.44209 33321 ft 477 kts 352°
2026-05-04 13:52 25.18768 113.44401 34190 ft 474 kts 352°
2026-05-04 13:52 25.22063 113.44493 34551 ft 474 kts 352°
2026-05-04 13:52 25.25380 113.44587 34915 ft 474 kts 352°
2026-05-04 13:53 25.28640 113.44680 35191 ft 474 kts 352°
2026-05-04 13:53 25.35279 113.44868 35215 ft 476 kts 352°
2026-05-04 13:54 25.45217 113.45157 35220 ft 475 kts 352°
2026-05-04 13:55 25.55131 113.45443 35221 ft 474 kts 352°
2026-05-04 13:55 25.65056 113.45728 35227 ft 475 kts 352°
2026-05-04 13:56 25.71641 113.45920 35216 ft 474 kts 352°
2026-05-04 13:57 25.81550 113.46206 35213 ft 475 kts 352°
2026-05-04 13:58 25.94714 113.46078 35208 ft 469 kts 348°
2026-05-04 13:58 26.04511 113.45689 35187 ft 469 kts 348°
2026-05-04 13:59 26.11060 113.45436 35187 ft 469 kts 348°
2026-05-04 14:00 26.20862 113.45059 35193 ft 470 kts 348°
2026-05-04 14:00 26.30654 113.44685 35190 ft 469 kts 348°
2026-05-04 14:01 26.37221 113.44433 35188 ft 469 kts 348°
2026-05-04 14:02 26.47013 113.44055 35179 ft 470 kts 348°
2026-05-04 14:02 26.53563 113.43804 35167 ft 469 kts 348°
2026-05-04 14:03 26.60084 113.43555 35165 ft 469 kts 348°
2026-05-04 14:03 26.66607 113.43304 35159 ft 469 kts 348°
2026-05-04 14:04 26.76408 113.42928 35152 ft 469 kts 348°
2026-05-04 14:04 26.82937 113.42677 35151 ft 469 kts 348°
2026-05-04 14:05 26.92702 113.42303 35154 ft 469 kts 348°
2026-05-04 14:06 26.99238 113.42052 35157 ft 468 kts 348°
2026-05-04 14:06 27.05742 113.41800 35154 ft 468 kts 348°
2026-05-04 14:07 27.12262 113.41547 35150 ft 469 kts 348°
2026-05-04 14:07 27.18800 113.41296 35147 ft 468 kts 348°
2026-05-04 14:08 27.25294 113.41044 35144 ft 468 kts 348°
2026-05-04 14:08 27.31789 113.40794 35141 ft 468 kts 348°
2026-05-04 14:09 27.41634 113.40908 35140 ft 473 kts 351°
2026-05-04 14:10 27.51477 113.41117 35138 ft 470 kts 350°
2026-05-04 14:10 27.58030 113.41246 35136 ft 470 kts 350°
2026-05-04 14:11 27.64564 113.41384 34814 ft 472 kts 351°
2026-05-04 14:11 27.71226 113.41880 34335 ft 480 kts 354°
2026-05-04 14:11 27.74529 113.42183 34102 ft 480 kts 354°
2026-05-04 14:12 27.77851 113.42490 33871 ft 481 kts 353°
2026-05-04 14:12 27.81219 113.42793 33629 ft 482 kts 353°
2026-05-04 14:12 27.87935 113.43388 33184 ft 483 kts 353°
2026-05-04 14:13 27.91273 113.43684 33148 ft 484 kts 353°
2026-05-04 14:13 27.97985 113.44273 33145 ft 484 kts 353°
2026-05-04 14:14 28.04749 113.44861 33146 ft 484 kts 353°
2026-05-04 14:14 28.14835 113.45670 33139 ft 481 kts 352°
2026-05-04 14:15 28.28248 113.46607 33136 ft 483 kts 352°
2026-05-04 14:16 28.38328 113.47335 33140 ft 482 kts 352°
2026-05-04 14:17 28.48371 113.48051 33142 ft 483 kts 353°
2026-05-04 14:18 28.58440 113.48771 33141 ft 482 kts 353°
2026-05-04 14:19 28.71833 113.49733 33141 ft 482 kts 353°
2026-05-04 14:19 28.78493 113.50208 33143 ft 483 kts 353°
2026-05-04 14:20 28.85239 113.50692 33143 ft 483 kts 353°
2026-05-04 14:20 28.91957 113.51175 33147 ft 483 kts 353°
2026-05-04 14:21 29.02020 113.51900 33158 ft 483 kts 353°
2026-05-04 14:21 29.08717 113.52384 33161 ft 482 kts 353°
2026-05-04 14:22 29.15389 113.52871 33163 ft 474 kts 353°
2026-05-04 14:22 29.21950 113.53343 33161 ft 473 kts 353°
2026-05-04 14:23 29.31784 113.54081 33163 ft 472 kts 354°
2026-05-04 14:24 29.38336 113.54652 33152 ft 473 kts 354°
2026-05-04 14:24 29.44909 113.55231 33142 ft 472 kts 354°
2026-05-04 14:25 29.51448 113.55800 33137 ft 473 kts 354°
2026-05-04 14:25 29.61332 113.56660 33131 ft 474 kts 354°
2026-05-04 14:26 29.67877 113.57232 33128 ft 473 kts 355°
2026-05-04 14:26 29.74425 113.57801 33123 ft 472 kts 355°
2026-05-04 14:27 29.80991 113.58375 33120 ft 473 kts 355°
2026-05-04 14:27 29.87539 113.59025 33116 ft 475 kts 358°
2026-05-04 14:28 29.94095 113.60385 33115 ft 484 kts
2026-05-04 14:28 30.00624 113.62654 33114 ft 493 kts 12°
2026-05-04 14:29 30.13298 113.68881 33111 ft 497 kts 16°
2026-05-04 14:30 30.19651 113.72079 33111 ft 495 kts 16°
2026-05-04 14:31 30.29135 113.76833 33108 ft 494 kts 16°
2026-05-04 14:32 30.41702 113.83144 33110 ft 493 kts 16°
2026-05-04 14:32 30.47995 113.86310 33097 ft 492 kts 16°
2026-05-04 14:33 30.54285 113.89479 33113 ft 492 kts 17°
2026-05-04 14:33 30.60527 113.92629 33107 ft 491 kts 17°
2026-05-04 14:34 30.66821 113.95760 33108 ft 490 kts 15°
2026-05-04 14:34 30.73058 113.98960 33122 ft 491 kts 19°
2026-05-04 14:35 30.79198 114.02396 33114 ft 491 kts 19°
2026-05-04 14:35 30.85402 114.05759 33103 ft 490 kts 18°
2026-05-04 14:36 30.91561 114.09084 33114 ft 490 kts 18°
2026-05-04 14:36 30.97779 114.12455 33117 ft 489 kts 19°
2026-05-04 14:37 31.03936 114.15803 33109 ft 488 kts 19°
2026-05-04 14:37 31.10085 114.19143 33110 ft 488 kts 19°
2026-05-04 14:38 31.16228 114.22485 33101 ft 486 kts 19°
2026-05-04 14:38 31.22396 114.25849 33122 ft 487 kts 19°
2026-05-04 14:39 31.28535 114.29135 33112 ft 483 kts 16°
2026-05-04 14:39 31.34832 114.31623 33117 ft 474 kts
2026-05-04 14:40 31.44465 114.33427 33115 ft 463 kts 356°
2026-05-04 14:40 31.50879 114.33659 33115 ft 461 kts 355°
2026-05-04 14:41 31.57328 114.33819 33123 ft 461 kts 355°
2026-05-04 14:42 31.70127 114.34182 33121 ft 461 kts 356°
2026-05-04 14:42 31.76522 114.34377 33114 ft 460 kts 355°
2026-05-04 14:43 31.82949 114.34571 33115 ft 459 kts 356°
2026-05-04 14:43 31.89308 114.34763 33126 ft 458 kts 356°
2026-05-04 14:44 31.95678 114.34956 33123 ft 457 kts 356°
2026-05-04 14:44 32.02083 114.35147 33107 ft 457 kts 356°
2026-05-04 14:45 32.08430 114.35342 33123 ft 457 kts 356°
2026-05-04 14:45 32.14798 114.35535 33118 ft 456 kts 356°
2026-05-04 14:46 32.21117 114.35728 33110 ft 456 kts 356°
2026-05-04 14:46 32.27508 114.36026 33100 ft 458 kts 359°
2026-05-04 14:47 32.33849 114.36594 33107 ft 457 kts
2026-05-04 14:47 32.40160 114.37180 33092 ft 457 kts 360°
2026-05-04 14:48 32.46524 114.37766 33091 ft 457 kts
2026-05-04 14:48 32.52843 114.38345 33084 ft 456 kts 360°
2026-05-04 14:49 32.59185 114.38926 33092 ft 456 kts
2026-05-04 14:49 32.65558 114.39510 33087 ft 456 kts
2026-05-04 14:50 32.71882 114.40095 33082 ft 456 kts
2026-05-04 14:50 32.78209 114.40687 33086 ft 456 kts
2026-05-04 14:51 32.84516 114.41275 33075 ft 455 kts
2026-05-04 14:51 32.90848 114.41866 33096 ft 455 kts
2026-05-04 14:52 32.97145 114.42456 33074 ft 454 kts
2026-05-04 14:52 33.03443 114.43046 33071 ft 455 kts
2026-05-04 14:53 33.09757 114.43638 33069 ft 454 kts
2026-05-04 14:53 33.16066 114.44229 33074 ft 454 kts
2026-05-04 14:54 33.22351 114.44823 33067 ft 454 kts
2026-05-04 14:54 33.28669 114.45417 33067 ft 453 kts
2026-05-04 14:55 33.34925 114.46004 33066 ft 453 kts
2026-05-04 14:55 33.41209 114.46596 33075 ft 453 kts
2026-05-04 14:56 33.47496 114.47188 33078 ft 452 kts
2026-05-04 14:56 33.53781 114.47781 33078 ft 452 kts
2026-05-04 14:57 33.60012 114.48370 33076 ft 452 kts
2026-05-04 14:57 33.66303 114.48962 33077 ft 452 kts
2026-05-04 14:58 33.72558 114.49545 33080 ft 452 kts
2026-05-04 14:58 33.78805 114.50131 33074 ft 450 kts
2026-05-04 14:59 33.85079 114.50718 33086 ft 451 kts
2026-05-04 15:00 33.94450 114.51601 33073 ft 451 kts
2026-05-04 15:00 34.00673 114.52189 33065 ft 451 kts
2026-05-04 15:01 34.10062 114.53079 33059 ft 450 kts
2026-05-04 15:01 34.16310 114.53673 33060 ft 449 kts
2026-05-04 15:02 34.22539 114.54266 33057 ft 449 kts
2026-05-04 15:02 34.28769 114.54857 33055 ft 449 kts
2026-05-04 15:03 34.34991 114.55450 33061 ft 449 kts
2026-05-04 15:03 34.41220 114.56042 33068 ft 449 kts
2026-05-04 15:04 34.47426 114.56635 33061 ft 448 kts
2026-05-04 15:04 34.53626 114.57223 33061 ft 448 kts
2026-05-04 15:05 34.59853 114.57812 33054 ft 447 kts
2026-05-04 15:05 34.66033 114.58399 33059 ft 447 kts
2026-05-04 15:06 34.72256 114.58991 33051 ft 446 kts
2026-05-04 15:07 34.81527 114.59874 33044 ft 446 kts
2026-05-04 15:07 34.87716 114.60466 33052 ft 445 kts
2026-05-04 15:08 34.93878 114.61055 33043 ft 445 kts
2026-05-04 15:08 35.00045 114.61646 33043 ft 445 kts
2026-05-04 15:09 35.06216 114.62238 33030 ft 444 kts
2026-05-04 15:09 35.12377 114.62829 33030 ft 444 kts
2026-05-04 15:10 35.21596 114.63716 33029 ft 444 kts
2026-05-04 15:11 35.30822 114.64606 33030 ft 443 kts
2026-05-04 15:11 35.36957 114.65201 33028 ft 443 kts
2026-05-04 15:12 35.43090 114.65794 33026 ft 443 kts
2026-05-04 15:12 35.49239 114.66391 33023 ft 443 kts
2026-05-04 15:13 35.55374 114.66986 33024 ft 443 kts
2026-05-04 15:13 35.61512 114.67585 33022 ft 442 kts
2026-05-04 15:14 35.67651 114.68181 33027 ft 442 kts
2026-05-04 15:14 35.73762 114.68776 33028 ft 442 kts
2026-05-04 15:15 35.79908 114.69377 33020 ft 442 kts
2026-05-04 15:15 35.86035 114.69978 33010 ft 442 kts
2026-05-04 15:16 35.95251 114.70882 32998 ft 442 kts
2026-05-04 15:17 36.04432 114.71784 32999 ft 441 kts
2026-05-04 15:17 36.13621 114.72686 32996 ft 441 kts
2026-05-04 15:18 36.19736 114.73283 32994 ft 441 kts
2026-05-04 15:19 36.28882 114.74194 32991 ft 441 kts
2026-05-04 15:19 36.37954 114.76376 32985 ft 443 kts 13°
2026-05-04 15:20 36.43807 114.78854 32980 ft 445 kts 19°
2026-05-04 15:20 36.49468 114.81997 32980 ft 446 kts 22°
2026-05-04 15:21 36.55064 114.85251 32976 ft 446 kts 22°
2026-05-04 15:22 36.63464 114.90138 32972 ft 445 kts 22°
2026-05-04 15:22 36.71893 114.95042 32977 ft 445 kts 22°
2026-05-04 15:23 36.77505 114.98312 32979 ft 445 kts 22°
2026-05-04 15:23 36.83086 115.01569 32976 ft 445 kts 22°
2026-05-04 15:24 36.94284 115.08122 32978 ft 444 kts 22°
2026-05-04 15:25 36.99862 115.11395 32977 ft 444 kts 22°
2026-05-04 15:26 37.08235 115.16318 32974 ft 445 kts 22°
2026-05-04 15:26 37.16629 115.21264 32974 ft 445 kts 22°
2026-05-04 15:27 37.25018 115.26221 32966 ft 445 kts 22°
2026-05-04 15:28 37.33419 115.31195 32951 ft 444 kts 23°
2026-05-04 15:29 37.41795 115.36169 32952 ft 443 kts 23°
2026-05-04 15:30 37.61292 115.47793 32953 ft 444 kts 23°
2026-05-04 15:31 37.69598 115.52769 32214 ft 439 kts 23°
2026-05-04 15:32 37.78094 115.57476 28787 ft 437 kts 13°
2026-05-04 15:32 37.83909 115.58537 28319 ft 419 kts 359°
2026-05-04 15:33 37.89686 115.58215 27829 ft 414 kts 355°
2026-05-04 15:34 37.98238 115.57552 26760 ft 407 kts 356°
2026-05-04 15:34 38.01055 115.57340 26375 ft 404 kts 356°
2026-05-04 15:34 38.06629 115.56923 25602 ft 399 kts 356°
2026-05-04 15:35 38.12163 115.56623 24818 ft 394 kts 356°
2026-05-04 15:35 38.14857 115.56455 24424 ft 391 kts 356°
2026-05-04 15:35 38.17593 115.56261 24025 ft 389 kts 356°
2026-05-04 15:36 38.22944 115.55877 23262 ft 383 kts 356°
2026-05-04 15:36 38.25592 115.55951 22881 ft 382 kts
2026-05-04 15:36 38.28187 115.56651 22511 ft 380 kts 16°
2026-05-04 15:37 38.30628 115.57902 22147 ft 378 kts 24°
2026-05-04 15:37 38.32977 115.59362 21793 ft 376 kts 25°
2026-05-04 15:37 38.35331 115.60864 21419 ft 374 kts 25°
2026-05-04 15:37 38.37623 115.62326 21064 ft 371 kts 25°
2026-05-04 15:38 38.39947 115.63802 20707 ft 369 kts 25°
2026-05-04 15:38 38.42216 115.65237 20346 ft 367 kts 26°
2026-05-04 15:38 38.44514 115.66688 19983 ft 365 kts 26°
2026-05-04 15:38 38.46780 115.68119 19630 ft 363 kts 26°
2026-05-04 15:39 38.49027 115.69537 19279 ft 361 kts 26°
2026-05-04 15:39 38.51256 115.70943 18920 ft 359 kts 26°
2026-05-04 15:39 38.55725 115.73766 18201 ft 355 kts 26°
2026-05-04 15:40 38.57930 115.75162 17827 ft 356 kts 26°
2026-05-04 15:40 38.60152 115.76570 17199 ft 354 kts 26°
2026-05-04 15:40 38.62292 115.77928 16644 ft 341 kts 26°
2026-05-04 15:40 38.64377 115.79293 16380 ft 333 kts 28°
2026-05-04 15:41 38.66360 115.80840 16416 ft 336 kts 33°
2026-05-04 15:41 38.68255 115.82615 16417 ft 337 kts 38°
2026-05-04 15:41 38.70056 115.84517 16441 ft 337 kts 39°
2026-05-04 15:41 38.71859 115.86459 16485 ft 337 kts 39°
2026-05-04 15:42 38.73632 115.88372 16500 ft 337 kts 39°
2026-05-04 15:42 38.75430 115.90314 16519 ft 337 kts 39°
2026-05-04 15:42 38.77218 115.92243 16545 ft 337 kts 39°
2026-05-04 15:42 38.79010 115.94177 16530 ft 337 kts 39°
2026-05-04 15:43 38.80819 115.96130 16517 ft 337 kts 39°
2026-05-04 15:43 38.82591 115.98041 16543 ft 337 kts 39°
2026-05-04 15:43 38.84402 115.99996 16540 ft 338 kts 39°
2026-05-04 15:43 38.86184 116.01922 16531 ft 338 kts 39°
2026-05-04 15:44 38.87984 116.03870 16535 ft 338 kts 39°
2026-05-04 15:44 38.89792 116.05827 16540 ft 338 kts 39°
2026-05-04 15:44 38.91573 116.07756 16538 ft 338 kts 39°
2026-05-04 15:44 38.93379 116.09714 16538 ft 338 kts 39°
2026-05-04 15:45 38.95182 116.11667 16533 ft 338 kts 39°
2026-05-04 15:45 38.96964 116.13600 16536 ft 338 kts 39°
2026-05-04 15:45 38.98762 116.15553 16538 ft 338 kts 39°
2026-05-04 15:45 39.00565 116.17508 16533 ft 337 kts 37°
2026-05-04 15:46 39.02564 116.19046 16525 ft 335 kts 19°
2026-05-04 15:46 39.04848 116.19668 16530 ft 335 kts
2026-05-04 15:46 39.07147 116.19471 16541 ft 334 kts 353°
2026-05-04 15:46 39.09463 116.19112 16539 ft 334 kts 353°
2026-05-04 15:47 39.11760 116.18748 16542 ft 333 kts 353°
2026-05-04 15:47 39.14087 116.18384 16541 ft 334 kts 353°
2026-05-04 15:47 39.16382 116.18030 16537 ft 333 kts 353°
2026-05-04 15:47 39.18679 116.17677 16485 ft 334 kts 353°
2026-05-04 15:48 39.20995 116.17325 16307 ft 333 kts 353°
2026-05-04 15:48 39.23282 116.16978 16134 ft 332 kts 353°
2026-05-04 15:48 39.27869 116.16282 15773 ft 330 kts 352°
2026-05-04 15:49 39.30136 116.15939 15598 ft 328 kts 352°
2026-05-04 15:49 39.32424 116.15590 15425 ft 327 kts 352°
2026-05-04 15:49 39.34684 116.15247 15254 ft 327 kts 352°
2026-05-04 15:49 39.36919 116.14906 15078 ft 326 kts 352°
2026-05-04 15:50 39.39183 116.14563 14896 ft 325 kts 352°
2026-05-04 15:50 39.41421 116.14223 14718 ft 324 kts 352°
2026-05-04 15:50 39.43638 116.13886 14547 ft 323 kts 352°
2026-05-04 15:50 39.45868 116.13547 14377 ft 321 kts 352°
2026-05-04 15:51 39.48099 116.13205 14189 ft 321 kts 352°
2026-05-04 15:51 39.50327 116.12865 14013 ft 320 kts 352°
2026-05-04 15:51 39.52520 116.12530 13842 ft 319 kts 352°
2026-05-04 15:51 39.54728 116.12193 13668 ft 319 kts 352°
2026-05-04 15:52 39.56926 116.11858 13482 ft 318 kts 352°
2026-05-04 15:52 39.59108 116.11526 13317 ft 317 kts 351°
2026-05-04 15:52 39.61294 116.11192 13147 ft 317 kts 351°
2026-05-04 15:52 39.63498 116.10854 12964 ft 315 kts 351°
2026-05-04 15:53 39.65677 116.10519 12785 ft 315 kts 351°
2026-05-04 15:53 39.67859 116.10184 12609 ft 314 kts 351°
2026-05-04 15:53 39.70028 116.09851 12431 ft 313 kts 351°
2026-05-04 15:53 39.72188 116.09518 12248 ft 313 kts 351°
2026-05-04 15:54 39.74334 116.09187 12072 ft 313 kts 351°
2026-05-04 15:54 39.76495 116.08855 11894 ft 312 kts 351°
2026-05-04 15:54 39.78643 116.08523 11707 ft 312 kts 351°
2026-05-04 15:54 39.80812 116.08189 11532 ft 312 kts 351°
2026-05-04 15:55 39.82968 116.07855 11363 ft 311 kts 351°
2026-05-04 15:55 39.85091 116.07529 11192 ft 310 kts 351°
2026-05-04 15:55 39.87238 116.07198 11020 ft 309 kts 350°
2026-05-04 15:55 39.89369 116.06869 10849 ft 308 kts 351°
2026-05-04 15:56 39.91512 116.06538 10657 ft 307 kts 350°
2026-05-04 15:56 39.93607 116.06214 10501 ft 306 kts 350°
2026-05-04 15:56 39.95721 116.05886 10331 ft 306 kts 350°
2026-05-04 15:56 39.97857 116.05555 10156 ft 307 kts 350°
2026-05-04 15:57 39.99963 116.05228 9982 ft 306 kts 350°
2026-05-04 15:57 40.02096 116.04896 9815 ft 305 kts 350°
2026-05-04 15:57 40.04204 116.04569 9802 ft 305 kts 350°
2026-05-04 15:57 40.06302 116.04243 9790 ft 306 kts 350°
2026-05-04 15:58 40.08416 116.03915 9787 ft 305 kts 349°
2026-05-04 15:58 40.10526 116.03587 9788 ft 305 kts 349°
2026-05-04 15:58 40.12632 116.03257 9794 ft 304 kts 349°
2026-05-04 15:58 40.14749 116.02927 9793 ft 304 kts 349°
2026-05-04 15:59 40.16826 116.02601 9790 ft 304 kts 349°
2026-05-04 15:59 40.18938 116.02257 9788 ft 303 kts 346°
2026-05-04 15:59 40.20852 116.01231 9763 ft 295 kts 318°
2026-05-04 15:59 40.22032 115.99126 9783 ft 292 kts 289°
2026-05-04 16:00 40.22310 115.96501 9793 ft 294 kts 272°
2026-05-04 16:00 40.22288 115.93819 9797 ft 293 kts 270°
2026-05-04 16:00 40.22280 115.91148 9814 ft 294 kts 272°
2026-05-04 16:00 40.22327 115.88507 9816 ft 293 kts 273°
2026-05-04 16:01 40.22417 115.85818 9829 ft 293 kts 274°
2026-05-04 16:01 40.22527 115.83156 9841 ft 293 kts 274°
2026-05-04 16:01 40.22647 115.80535 9846 ft 293 kts 274°
2026-05-04 16:01 40.22777 115.77882 9855 ft 293 kts 276°
2026-05-04 16:02 40.23386 115.75358 9870 ft 292 kts 303°
2026-05-04 16:02 40.24876 115.73559 9935 ft 299 kts 328°
2026-05-04 16:02 40.29064 115.73007 9695 ft 311 kts
2026-05-04 16:03 40.31181 115.73208 9508 ft 304 kts 359°
2026-05-04 16:03 40.33238 115.73377 9300 ft 286 kts 359°
2026-05-04 16:03 40.35169 115.73534 9130 ft 269 kts 358°
2026-05-04 16:03 40.36969 115.73679 8971 ft 254 kts 358°
2026-05-04 16:04 40.38664 115.73816 8945 ft 235 kts 358°
2026-05-04 16:04 40.41597 115.75772 8972 ft 255 kts 53°
2026-05-04 16:04 40.42250 115.77937 8964 ft 261 kts 84°
2026-05-04 16:05 40.42226 115.80306 8980 ft 266 kts 94°
2026-05-04 16:05 40.42063 115.82739 8949 ft 266 kts 95°
2026-05-04 16:05 40.41741 115.87578 8930 ft 267 kts 94°
2026-05-04 16:06 40.41604 115.90002 8921 ft 267 kts 94°
2026-05-04 16:06 40.41278 115.96450 8907 ft 265 kts 93°
2026-05-04 16:07 40.41119 115.99676 8906 ft 266 kts 93°
2026-05-04 16:07 40.40758 116.06954 8905 ft 267 kts 93°
2026-05-04 16:08 40.40638 116.09355 8905 ft 266 kts 93°
2026-05-04 16:08 40.40324 116.16634 8899 ft 267 kts 89°
2026-05-04 16:09 40.40366 116.21489 8860 ft 263 kts 88°
2026-05-04 16:09 40.40424 116.26294 8322 ft 264 kts 89°
2026-05-04 16:10 40.40469 116.31045 7849 ft 261 kts 89°
2026-05-04 16:11 40.40530 116.38208 6841 ft 261 kts 90°
2026-05-04 16:11 40.40549 116.40536 6478 ft 257 kts 91°
2026-05-04 16:12 40.40601 116.47456 5374 ft 248 kts 91°
2026-05-04 16:12 40.40182 116.53683 4877 ft 204 kts 134°
2026-05-04 16:13 40.37814 116.55083 4650 ft 185 kts 177°
2026-05-04 16:13 40.35272 116.55396 4316 ft 183 kts 178°
2026-05-04 16:14 40.32747 116.55728 4056 ft 182 kts 177°
2026-05-04 16:14 40.30226 116.56108 3974 ft 182 kts 177°
2026-05-04 16:15 40.26490 116.56705 3458 ft 180 kts 176°
2026-05-04 16:16 40.24017 116.57103 3030 ft 178 kts 176°
2026-05-04 16:16 40.20348 116.57688 2325 ft 172 kts 177°
2026-05-04 16:17 40.18051 116.58053 1891 ft 162 kts 178°
2026-05-04 16:18 40.14887 116.58549 1271 ft 143 kts 176°
2026-05-04 16:18 40.13914 116.58698 1092 ft 140 kts 176°
2026-05-04 16:19 40.11006 116.59148 586 ft 140 kts 174°
2026-05-04 16:19 40.09096 116.59454 193 ft 138 kts 172°
2026-05-04 16:20 40.07235 116.59750 132 ft 33 kts 173°
2026-05-04 16:20 40.06804 116.59815 132 ft 28 kts 176°
2026-05-04 16:21 40.06399 116.59702 132 ft 11 kts 195°
2026-05-04 16:22 40.06267 116.59666 132 ft 8 kts 185°
2026-05-04 16:22 40.06070 116.59695 132 ft 11 kts 172°
2026-05-04 16:23 40.05878 116.59723 132 ft 10 kts 172°
2026-05-04 16:24 40.05651 116.59765 132 ft 1 kts 149°
2026-05-04 16:25 40.05638 116.59810 132 ft 4 kts 92°
2026-05-04 16:26 40.05638 116.59831 132 ft 1 kts 88°
2026-05-04 16:26 40.05626 116.60030 132 ft 13 kts 98°
2026-05-04 16:27 40.05631 116.60212 132 ft 0 kts 84°
2026-05-04 16:28 40.05631 116.60215 132 ft 0 kts 84°
2026-05-04 16:28 40.05640 116.60349 132 ft 10 kts 85°
2026-05-04 16:29 40.05648 116.60647 132 ft 3 kts 85°
2026-05-04 16:30 40.05662 116.60731 132 ft 2 kts 69°
2026-05-04 16:31 40.05666 116.60744 132 ft 0 kts 65°